[[{"header":{"parameterUnit":"m.s-1","parameterCategory":1,"la1":30.2991,"la2":30.254,"lo1":-89.0895,"lo2":-89.0444,"dy":0.0017,"dx":0.0017,"nx":28,"ny":28,"refTime":"2024-08-24T09:00:00:Z","depth":0,"parameterNumber":2,"parameterNumberName":"U-component_of_WINDS"},"data":[0,0,0,0,0,0,0,0,0,0,0,0,0,0,0,0,0,0,0,0,0,0,0,0,0,0,0,0,0,0,0,0,0,0,0,0,0,0,0,0,0,0,0,0,0,0,0,0,0,0,0,0,0,0,0,0,0,0,-3.1603,-3.1603,0,-3.1554,-3.1554,-3.1553,-3.1432,-3.143,-3.1427,-3.1425,-3.1377,-3.1378,-3.1379,0,0,0,0,0,0,0,0,0,0,0,0,0,-3.1597,-3.1598,-3.1603,-3.1603,-3.1602,-3.1554,-3.1554,-3.1553,-3.1433,-3.143,-3.1426,-3.1424,-3.1376,-3.1378,-3.1379,0,0,0,0,0,0,0,0,0,0,0,0,0,-3.1579,-3.1598,-3.1603,-3.1536,-3.153,-3.1554,-3.1554,-3.1553,-3.1433,-3.1429,-3.1426,-3.1422,-3.1376,-3.1377,-3.1379,-3.1466,0,0,-3.1384,-3.1385,0,0,0,0,0,0,0,0,-3.158,-3.158,-3.1547,-3.1541,-3.1534,-3.1495,-3.1534,-3.1524,-3.1434,-3.147,-3.1425,-3.142,-3.1419,-3.1417,-3.1416,-3.1463,-3.1461,-3.1384,-3.1385,-3.1386,-3.1386,0,0,0,0,0,0,0,-3.1582,-3.1581,-3.1584,-3.1547,-3.1539,-3.151,-3.1503,-3.1531,-3.1467,-3.1467,-3.1458,-3.1453,-3.1415,-3.1415,-3.1414,-3.146,-3.1384,-3.1386,-3.1387,-3.1387,-3.1578,-3.1582,0,0,0,0,0,0,-3.1592,-3.1583,-3.1585,-3.1582,-3.1548,-3.1513,-3.1506,-3.1512,-3.1466,-3.1455,-3.1457,-3.1448,-3.1414,-3.1413,-3.1412,-3.1511,-3.1386,-3.1387,-3.1388,-3.1574,-3.1579,-3.1584,0,0,0,0,0,0,-3.1593,-3.1594,-3.1587,-3.158,-3.1577,-3.1517,-3.1525,-3.1513,-3.1512,-3.1459,-3.1447,-3.1468,-3.1411,-3.141,-3.1454,-3.1508,-3.1388,-3.139,-3.157,-3.1576,-3.1582,-3.171,0,0,0,0,0,0,-3.1593,-3.1594,-3.1625,-3.1582,-3.1578,-3.1629,-3.1528,-3.1514,-3.1515,-3.1503,-3.1466,-3.1457,-3.1408,-3.1452,-3.1455,-3.1508,-3.1391,-3.1564,-3.1572,-3.158,-3.17,-3.172,-3.1736,0,0,0,0,0,-3.1593,-3.1663,-3.1628,-3.1629,-3.1615,-3.1632,-3.163,-3.1572,-3.152,-3.1552,-3.1518,-3.1458,-3.1502,-3.1457,-3.146,-3.1514,-3.1561,-3.157,-3.1579,-3.1692,-3.1716,-3.1736,0,0,0,0,0,0,-3.1715,-3.1656,-3.1616,-3.1674,-3.1659,-3.1611,-3.1649,-3.1598,-3.1598,-3.1587,-3.1516,-3.1509,-3.1562,-3.1543,-3.1494,-3.1597,-3.1522,-3.1532,-3.1607,-3.1629,-3.1646,-3.1649,-3.1392,0,0,0,0,0,-3.1749,-3.1766,-3.1714,-3.1771,-3.1765,-3.1709,-3.1714,-3.1671,-3.1653,-3.1646,-3.1614,-3.16,-3.1611,-3.1619,-3.1625,-3.1698,-3.1689,-3.1737,-3.1755,-3.177,-3.1779,-3.1818,-3.1839,-3.1614,-3.1614,-3.1614,0,0,-3.1818,-3.1788,-3.1803,-3.1794,-3.1777,-3.1798,-3.1704,-3.1729,-3.1745,-3.165,-3.1688,-3.1666,-3.1645,-3.1704,-3.1729,-3.169,-3.184,-3.1782,-3.1794,-3.1795,-3.1829,-3.1851,-3.187,-3.162,-3.1619,-3.1618,0,0,-3.1955,-3.1934,-3.1979,-3.1965,-3.1941,-3.1903,-3.1915,-3.1876,-3.1857,-3.1895,-3.1825,-3.1843,-3.1863,-3.1851,-3.1848,-3.1985,-3.1931,-3.199,-3.2082,-3.2121,-3.2138,-3.2154,-3.2203,-3.2221,-3.2,-3.2,-3.2,0,-3.2044,-3.2071,-3.2009,-3.2039,-3.2038,-3.1954,-3.2,-3.199,-3.197,-3.1972,-3.1929,-3.1953,-3.1933,-3.1989,-3.2023,-3.2023,-3.2035,-3.1992,-3.2141,-3.2155,-3.2169,-3.2215,-3.2234,-3.2007,-3.2006,-3.2006,-3.2005,0,-3.2182,-3.2203,-3.2243,-3.2225,-3.2229,-3.2268,-3.2213,-3.2225,-3.2183,-3.2151,-3.2193,-3.2167,-3.2167,-3.2178,-3.2137,-3.2229,-3.2206,-3.2153,-3.2076,-3.2199,-3.2241,-3.2258,-3.2018,-3.2015,-3.2013,-3.2011,0,0,-3.2391,-3.2341,-3.2357,-3.2349,-3.2318,-3.2333,-3.237,-3.2371,-3.2382,-3.2373,-3.2402,-3.2422,-3.2374,-3.2371,-3.2328,-3.2363,-3.2474,-3.2305,-3.2304,-3.2338,-3.2575,-3.2615,-3.2636,-3.2439,-3.2442,-3.2445,-3.2577,0,-3.2519,-3.2576,-3.2523,-3.2591,-3.261,-3.2533,-3.2565,-3.2551,-3.2523,-3.2537,-3.2507,-3.2522,-3.2457,-3.2455,-3.2485,-3.2454,-3.2521,-3.2444,-3.2466,-3.2468,-3.2472,-3.2658,-3.2699,-3.2825,-3.2593,-3.2596,-3.2598,0,-3.2675,-3.2673,-3.2744,-3.2711,-3.2717,-3.2746,-3.2744,-3.2758,-3.2741,-3.2719,-3.2718,-3.2667,-3.2702,-3.2628,-3.2676,-3.2625,-3.2632,-3.2619,-3.2622,-3.2621,-3.2539,-3.2661,-3.2864,-3.2883,-3.2624,-3.2621,-3.262,0,-3.282,-3.2835,-3.288,-3.2876,-3.2838,-3.2861,-3.2847,-3.2827,-3.2832,-3.2831,-3.2833,-3.2837,-3.2839,-3.2844,-3.2796,-3.2747,-3.2851,-3.2773,-3.2834,-3.2836,-3.2858,-3.2857,-3.3064,-3.2865,-3.2864,-3.2864,-3.2863,0,-3.2968,-3.3014,-3.2944,-3.2972,-3.3022,-3.2962,-3.3014,-3.2992,-3.2976,-3.2999,-3.2933,-3.2956,-3.2892,-3.291,-3.2873,-3.2919,-3.2921,-3.2905,-3.2894,-3.291,-3.2912,-3.2912,-3.2901,-3.2869,-3.2868,-3.2867,-3.2866,0,-3.3137,-3.3092,-3.3135,-3.3098,-3.309,-3.3129,-3.3097,-3.3122,-3.3091,-3.3121,-3.3125,-3.3078,-3.3095,-3.3049,-3.3059,-3.3034,-3.3101,-3.3077,-3.3106,-3.3099,-3.3162,-3.3157,-3.3375,-3.3401,-3.3187,-3.3189,-3.3191,0,-3.3233,-3.3267,-3.3234,-3.3244,-3.3234,-3.3252,-3.3257,-3.3201,-3.3209,-3.3195,-3.3222,-3.3234,-3.324,-3.3272,-3.3239,-3.3247,-3.3222,-3.3299,-3.3223,-3.3238,-3.3223,-3.3221,-3.3225,-3.3313,-3.3316,-3.3318,-3.332,0,-3.3409,-3.3386,-3.3395,-3.3399,-3.3407,-3.3406,-3.3401,-3.3414,-3.3355,-3.3368,-3.3385,-3.339,-3.3401,-3.3415,-3.3416,-3.3403,-3.3353,-3.3345,-3.3359,-3.3375,-3.339,-3.3383,-3.3148,-3.3339,-3.3337,-3.3336,-3.3335,-3.3334,-3.3544,-3.3571,-3.3553,-3.3567,-3.3558,-3.3555,-3.3577,-3.3551,-3.3563,-3.3568,-3.3535,-3.356,-3.3545,-3.3542,-3.3535,-3.3554,-3.352,-3.3541,-3.3546,-3.3552,-3.3562,-3.3389,-3.3555,-3.3554,-3.3553,-3.3553,-3.3553,0,-3.3717,-3.3702,-3.3715,-3.3711,-3.3723,-3.3675,-3.3668,-3.3681,-3.3703,-3.3694,-3.3703,-3.3724,-3.3737,-3.3707,-3.3716,-3.3738,-3.3715,-3.3742,-3.3739,-3.3737,-3.3593,-3.3579,-3.376,-3.376,-3.376,-3.376,-3.376,-3.376,-3.3807,-3.3851,-3.3827,-3.3867,-3.3852,-3.3875,-3.3876,-3.3874,-3.3867,-3.3893,-3.3904,-3.3884,-3.3868,-3.3876,-3.3887,-3.3878,-3.3884,-3.3919,-3.3902,-3.3767,-3.3747,-3.3728,-3.3714,-3.3921,-3.3922,-3.4045,-3.4046,-3.4047]},{"header":{"parameterUnit":"m.s-1","parameterCategory":1,"la1":30.2991,"la2":30.254,"lo1":-89.0895,"lo2":-89.0444,"dy":0.0017,"dx":0.0017,"nx":28,"ny":28,"refTime":"2024-08-24T09:00:00:Z","depth":0,"parameterNumber":3,"parameterNumberName":"V-component_of_WINDS"},"data":[0,0,0,0,0,0,0,0,0,0,0,0,0,0,0,0,0,0,0,0,0,0,0,0,0,0,0,0,0,0,0,0,0,0,0,0,0,0,0,0,0,0,0,0,0,0,0,0,0,0,0,0,0,0,0,0,0,0,2.6716,2.6716,0,2.6703,2.6703,2.6703,2.6747,2.6748,2.6749,2.6751,2.6729,2.6727,2.6725,0,0,0,0,0,0,0,0,0,0,0,0,0,2.6773,2.6772,2.6716,2.6716,2.6716,2.6703,2.6703,2.6703,2.6747,2.6748,2.675,2.6751,2.673,2.6727,2.6725,0,0,0,0,0,0,0,0,0,0,0,0,0,2.6753,2.6771,2.6716,2.6736,2.6738,2.6703,2.6703,2.6703,2.6746,2.6748,2.675,2.6752,2.673,2.6728,2.6725,2.6668,0,0,2.6717,2.6715,0,0,0,0,0,0,0,0,2.6754,2.6751,2.6734,2.6735,2.6737,2.6729,2.6715,2.6691,2.6746,2.6743,2.6751,2.6753,2.6727,2.6724,2.6717,2.6667,2.6666,2.6716,2.6715,2.6714,2.6713,0,0,0,0,0,0,0,2.6755,2.6751,2.6711,2.6733,2.6735,2.6744,2.6743,2.6711,2.6723,2.6743,2.6746,2.6745,2.6728,2.672,2.6717,2.6665,2.6716,2.6714,2.6712,2.6711,2.6567,2.6565,0,0,0,0,0,0,2.6755,2.6752,2.6711,2.671,2.6751,2.6741,2.6741,2.6729,2.6724,2.6725,2.6743,2.6747,2.6724,2.672,2.6717,2.6649,2.6714,2.6711,2.6709,2.6569,2.6567,2.6564,0,0,0,0,0,0,2.6756,2.6751,2.6712,2.6732,2.6728,2.6738,2.6725,2.6728,2.672,2.6724,2.6726,2.6733,2.6725,2.672,2.668,2.6648,2.671,2.6707,2.6572,2.6569,2.6566,2.6512,0,0,0,0,0,0,2.6757,2.6751,2.673,2.6732,2.6727,2.6677,2.6723,2.6726,2.6716,2.6721,2.6715,2.6715,2.6726,2.6684,2.6677,2.6646,2.6705,2.6575,2.6571,2.6567,2.6517,2.6508,2.65,0,0,0,0,0,2.6759,2.6714,2.6729,2.6724,2.6702,2.6675,2.6672,2.6688,2.6713,2.6692,2.6695,2.6716,2.6654,2.668,2.6672,2.6639,2.6577,2.6572,2.6567,2.6521,2.651,2.65,0,0,0,0,0,0,2.6705,2.6714,2.6731,2.6685,2.668,2.6683,2.6656,2.6675,2.666,2.6665,2.6683,2.6681,2.6637,2.6635,2.6663,2.6584,2.6619,2.6613,2.6587,2.6576,2.6568,2.6568,2.6703,0,0,0,0,0,2.6689,2.6669,2.6677,2.6636,2.6632,2.6645,2.6634,2.6647,2.664,2.6637,2.6637,2.6628,2.6607,2.6592,2.6572,2.6518,2.6517,2.6492,2.6484,2.6477,2.647,2.6441,2.643,2.6548,2.6548,2.6549,0,0,2.6652,2.6655,2.6641,2.6625,2.6622,2.6599,2.6642,2.6615,2.6598,2.6632,2.6595,2.6595,2.6586,2.6538,2.6517,2.6535,2.6437,2.647,2.6465,2.6462,2.6434,2.6423,2.6413,2.6545,2.6546,2.6546,0,0,2.6575,2.6576,2.6542,2.6539,2.6535,2.6545,2.6537,2.6537,2.654,2.6503,2.6529,2.6507,2.647,2.6463,2.6454,2.6378,2.6396,2.6371,2.6325,2.6296,2.6287,2.6278,2.6249,2.6239,2.6365,2.6364,2.6364,0,2.6529,2.6498,2.6521,2.6494,2.6485,2.652,2.6484,2.648,2.6468,2.6461,2.6482,2.6438,2.6434,2.6385,2.6367,2.6359,2.6349,2.637,2.6287,2.6279,2.6271,2.6244,2.6233,2.6361,2.6362,2.6362,2.6362,0,2.6442,2.642,2.6393,2.6385,2.6374,2.6342,2.6358,2.6344,2.636,2.6366,2.6328,2.6326,2.6307,2.6297,2.631,2.625,2.6261,2.6284,2.6319,2.6256,2.6231,2.6221,2.6357,2.6358,2.6359,2.636,0,0,2.6326,2.6334,2.6323,2.6321,2.6321,2.6303,2.6273,2.6258,2.6244,2.6237,2.621,2.618,2.6203,2.6193,2.6206,2.6181,2.6119,2.6207,2.6207,2.6189,2.6052,2.6033,2.602,2.6133,2.6131,2.613,2.6052,0,2.6249,2.62,2.6221,2.6169,2.6149,2.6183,2.6157,2.6153,2.6159,2.6141,2.6147,2.6124,2.6156,2.615,2.6128,2.6132,2.6091,2.6138,2.6106,2.6105,2.6105,2.6007,2.5986,2.5913,2.6043,2.6041,2.604,0,2.6151,2.6143,2.6089,2.6095,2.6087,2.6063,2.6051,2.6035,2.6031,2.6037,2.6028,2.6047,2.6016,2.6055,2.6012,2.6043,2.6032,2.6032,2.603,2.6024,2.6066,2.5997,2.589,2.5878,2.6024,2.6026,2.6027,0,2.6069,2.6045,2.601,2.6007,2.6013,2.5995,2.5996,2.5995,2.5985,2.5974,2.5968,2.5952,2.5943,2.593,2.5944,2.5971,2.5899,2.5938,2.5901,2.59,2.5881,2.5881,2.5768,2.5878,2.5878,2.5879,2.5879,0,2.5979,2.5945,2.5974,2.5952,2.5915,2.5939,2.5901,2.5906,2.5905,2.5883,2.5912,2.589,2.5912,2.5892,2.5903,2.5865,2.5861,2.5863,2.5866,2.5859,2.5859,2.585,2.5854,2.5876,2.5876,2.5877,2.5877,0,2.588,2.5899,2.5863,2.5873,2.5875,2.5846,2.5854,2.5833,2.5843,2.5815,2.581,2.5824,2.5803,2.5817,2.5794,2.5802,2.5752,2.5763,2.5753,2.5755,2.5716,2.5719,2.5591,2.5575,2.5698,2.5696,2.5695,0,2.582,2.5795,2.5803,2.5792,2.5793,2.5774,2.5765,2.5789,2.5778,2.5774,2.5753,2.5735,2.5721,2.5685,2.5692,2.5675,2.5684,2.5641,2.5681,2.5675,2.5681,2.5681,2.5678,2.5631,2.563,2.5628,2.5627,0,2.571,2.5722,2.5709,2.5699,2.5689,2.5681,2.5676,2.5665,2.569,2.5675,2.5656,2.5646,2.5625,2.5605,2.5592,2.5591,2.5612,2.5616,2.5606,2.5596,2.5591,2.5592,2.5728,2.5617,2.5618,2.5619,2.5619,2.562,2.5627,2.5607,2.561,2.5595,2.5595,2.559,2.5572,2.5581,2.5566,2.5552,2.5567,2.5543,2.5541,2.5526,2.5522,2.5502,2.5519,2.5505,2.5501,2.5497,2.5491,2.5598,2.55,2.55,2.5501,2.5501,2.5501,0,2.5518,2.5523,2.5509,2.5503,2.5491,2.5517,2.5513,2.55,2.548,2.5478,2.5465,2.5442,2.5424,2.5432,2.5416,2.5398,2.5407,2.5393,2.5393,2.5392,2.5477,2.5486,2.5386,2.5386,2.5386,2.5386,2.5386,2.5386,2.5459,2.5426,2.5438,2.5405,2.5409,2.5388,2.5383,2.5379,2.5378,2.5352,2.5339,2.5345,2.5346,2.5331,2.5315,2.5318,2.5309,2.5291,2.5296,2.5375,2.5386,2.5397,2.5405,2.5289,2.5289,2.5213,2.5212,2.5211]}]]